B21825 KLAX-KLSV

Flight info

Callsign B21825
Flight time 0h 38m
Altitude 31000
Route ORCKA5 MISEN J9 LAS DCT
Aircraft B2/M-SDE3FGHIM1M2RWXY/LB1

Departure

Time 2026-04-21 23:37
Airport Los Angeles International Airport (KLAX)

Arrival

Time 2026-04-22 00:16
Airport Nellis Air Force Base (KLSV)
Time Latitude Longitude Altitude Speed Heading
2026-04-21 23:04 33.93862 -118.42055 136 ft 0 kts 263°
2026-04-21 23:12 33.93862 -118.42049 127 ft 4 kts 262°
2026-04-21 23:12 33.93867 -118.42017 123 ft 4 kts 252°
2026-04-21 23:13 33.93878 -118.41991 125 ft 4 kts 211°
2026-04-21 23:13 33.93890 -118.41986 121 ft 2 kts 174°
2026-04-21 23:21 33.93864 -118.41982 121 ft 9 kts 174°
2026-04-21 23:22 33.93794 -118.41973 126 ft 11 kts 173°
2026-04-21 23:22 33.93718 -118.41942 125 ft 12 kts 152°
2026-04-21 23:22 33.93689 -118.41856 127 ft 11 kts 86°
2026-04-21 23:22 33.93698 -118.41766 124 ft 11 kts 83°
2026-04-21 23:23 33.93708 -118.41660 127 ft 15 kts 83°
2026-04-21 23:23 33.93720 -118.41536 126 ft 14 kts 83°
2026-04-21 23:23 33.93731 -118.41422 127 ft 13 kts 83°
2026-04-21 23:23 33.93741 -118.41322 127 ft 11 kts 83°
2026-04-21 23:24 33.93748 -118.41239 127 ft 9 kts 84°
2026-04-21 23:24 33.93756 -118.41171 124 ft 7 kts 80°
2026-04-21 23:24 33.93764 -118.41111 127 ft 11 kts 81°
2026-04-21 23:24 33.93781 -118.40974 122 ft 22 kts 84°
2026-04-21 23:25 33.93799 -118.40769 127 ft 25 kts 84°
2026-04-21 23:25 33.93817 -118.40565 127 ft 25 kts 80°
2026-04-21 23:25 33.93842 -118.40360 125 ft 25 kts 83°
2026-04-21 23:25 33.93863 -118.40152 127 ft 25 kts 83°
2026-04-21 23:26 33.93881 -118.39948 127 ft 25 kts 82°
2026-04-21 23:26 33.93904 -118.39743 127 ft 25 kts 85°
2026-04-21 23:26 33.93924 -118.39539 127 ft 25 kts 83°
2026-04-21 23:26 33.93940 -118.39334 125 ft 25 kts 86°
2026-04-21 23:27 33.93966 -118.39132 125 ft 24 kts 83°
2026-04-21 23:27 33.93988 -118.38929 127 ft 24 kts 83°
2026-04-21 23:27 33.94008 -118.38727 127 ft 24 kts 83°
2026-04-21 23:27 33.94028 -118.38524 124 ft 24 kts 82°
2026-04-21 23:28 33.94049 -118.38325 127 ft 23 kts 82°
2026-04-21 23:28 33.94067 -118.38143 127 ft 19 kts 83°
2026-04-21 23:28 33.94077 -118.38047 127 ft 4 kts 83°
2026-04-21 23:28 33.94078 -118.38024 127 ft 1 kts 92°
2026-04-21 23:29 33.94077 -118.38021 127 ft 0 kts 96°
2026-04-21 23:31 33.94077 -118.38022 127 ft 0 kts 96°
2026-04-21 23:36 33.94048 -118.38004 127 ft 11 kts 178°
2026-04-21 23:36 33.93987 -118.38032 125 ft 9 kts 241°
2026-04-21 23:36 33.93969 -118.38178 127 ft 38 kts 263°
2026-04-21 23:37 33.93912 -118.38767 127 ft 112 kts 263°
2026-04-21 23:37 33.93778 -118.40122 229 ft 215 kts 261°
2026-04-21 23:37 33.93583 -118.42052 552 ft 243 kts 259°
2026-04-21 23:37 33.93371 -118.44084 989 ft 239 kts 261°
2026-04-21 23:38 33.93178 -118.46019 925 ft 228 kts 262°
2026-04-21 23:38 33.92966 -118.47906 1019 ft 212 kts 260°
2026-04-21 23:38 33.92759 -118.49560 1427 ft 201 kts 261°
2026-04-21 23:38 33.92536 -118.51208 1625 ft 202 kts 261°
2026-04-21 23:39 33.92284 -118.52858 1782 ft 200 kts 258°
2026-04-21 23:39 33.92005 -118.54510 1896 ft 202 kts 258°
2026-04-21 23:39 33.91681 -118.56149 2041 ft 198 kts 252°
2026-04-21 23:39 33.90897 -118.57474 2552 ft 212 kts 229°
2026-04-21 23:40 33.89780 -118.59035 3365 ft 258 kts 231°
2026-04-21 23:40 33.88635 -118.60672 4283 ft 251 kts 231°
2026-04-21 23:40 33.87607 -118.62087 5088 ft 203 kts 223°
2026-04-21 23:40 33.86283 -118.62752 6242 ft 228 kts 191°
2026-04-21 23:41 33.84637 -118.62556 8322 ft 253 kts 166°
2026-04-21 23:41 33.82973 -118.61491 10664 ft 286 kts 147°
2026-04-21 23:41 33.81590 -118.59522 12357 ft 337 kts 125°
2026-04-21 23:41 33.80804 -118.56759 13548 ft 358 kts 107°
2026-04-21 23:42 33.80585 -118.53695 13766 ft 377 kts 88°
2026-04-21 23:42 33.81114 -118.50776 14207 ft 342 kts 72°
2026-04-21 23:42 33.82111 -118.48241 14014 ft 335 kts 58°
2026-04-21 23:42 33.83524 -118.46000 13970 ft 340 kts 45°
2026-04-21 23:43 33.85373 -118.44251 14069 ft 337 kts 26°
2026-04-21 23:43 33.87451 -118.43013 14100 ft 333 kts 21°
2026-04-21 23:43 33.89614 -118.41883 13842 ft 343 kts 18°
2026-04-21 23:43 33.91852 -118.40786 13390 ft 354 kts 18°
2026-04-21 23:44 33.94148 -118.39669 12986 ft 357 kts 18°
2026-04-21 23:44 33.96450 -118.38504 12505 ft 362 kts 20°
2026-04-21 23:44 33.98714 -118.37232 12273 ft 356 kts 23°
2026-04-21 23:44 34.00965 -118.35811 11500 ft 367 kts 27°
2026-04-21 23:45 34.03165 -118.34348 11159 ft 355 kts 25°
2026-04-21 23:45 34.07859 -118.30627 10908 ft 467 kts 38°
2026-04-21 23:45 34.10389 -118.27969 11005 ft 501 kts 46°
2026-04-21 23:46 34.12318 -118.24359 10773 ft 524 kts 68°
2026-04-21 23:46 34.13192 -118.20076 10904 ft 528 kts 85°
2026-04-21 23:46 34.13137 -118.15650 10998 ft 528 kts 100°
2026-04-21 23:46 34.12231 -118.11371 11039 ft 525 kts 114°
2026-04-21 23:47 34.11258 -118.08724 11070 ft 516 kts 118°
2026-04-21 23:47 34.10049 -118.04619 11084 ft 526 kts 108°
2026-04-21 23:47 34.09369 -118.00257 11120 ft 534 kts 100°
2026-04-21 23:47 34.09091 -117.95770 11117 ft 539 kts 94°
2026-04-21 23:48 34.09239 -117.89710 11122 ft 541 kts 88°
2026-04-21 23:48 34.09468 -117.86718 11133 ft 541 kts 86°
2026-04-21 23:48 34.09948 -117.82213 11143 ft 542 kts 83°
2026-04-21 23:48 34.10815 -117.77805 11119 ft 541 kts 72°
2026-04-21 23:49 34.12390 -117.73689 11104 ft 543 kts 62°
2026-04-21 23:49 34.14450 -117.69881 11091 ft 543 kts 51°
2026-04-21 23:49 34.16960 -117.66504 11116 ft 540 kts 48°
2026-04-21 23:49 34.19471 -117.63081 11131 ft 546 kts 48°
2026-04-21 23:50 34.22011 -117.59631 11161 ft 550 kts 48°
2026-04-21 23:50 34.24555 -117.56170 11079 ft 550 kts 48°
2026-04-21 23:50 34.27102 -117.52709 11073 ft 551 kts 48°
2026-04-21 23:50 34.29651 -117.49249 11082 ft 552 kts 48°
2026-04-21 23:51 34.32207 -117.45780 11069 ft 553 kts 48°
2026-04-21 23:51 34.34774 -117.42301 11064 ft 554 kts 48°
2026-04-21 23:51 34.37347 -117.38813 11046 ft 557 kts 48°
2026-04-21 23:51 34.39918 -117.35321 11042 ft 556 kts 48°
2026-04-21 23:52 34.42491 -117.31823 11052 ft 556 kts 48°
2026-04-21 23:52 34.45051 -117.28334 11040 ft 554 kts 48°
2026-04-21 23:52 34.47616 -117.24832 11034 ft 554 kts 48°
2026-04-21 23:52 34.50170 -117.21343 11034 ft 554 kts 48°
2026-04-21 23:53 34.52732 -117.17839 11030 ft 553 kts 48°
2026-04-21 23:53 34.55281 -117.14349 11030 ft 553 kts 48°
2026-04-21 23:53 34.57832 -117.10855 11013 ft 551 kts 48°
2026-04-21 23:53 34.60380 -117.07365 11014 ft 554 kts 47°
2026-04-21 23:54 34.62922 -117.03880 10985 ft 553 kts 48°
2026-04-21 23:54 34.65473 -117.00378 10970 ft 554 kts 48°
2026-04-21 23:54 34.68021 -116.96872 10992 ft 553 kts 48°
2026-04-21 23:54 34.70573 -116.93358 10995 ft 553 kts 48°
2026-04-21 23:55 34.73116 -116.89852 10988 ft 554 kts 48°
2026-04-21 23:55 34.75680 -116.86384 10987 ft 550 kts 46°
2026-04-21 23:55 34.78280 -116.82951 10999 ft 553 kts 46°
2026-04-21 23:55 34.80895 -116.79493 10981 ft 555 kts 47°
2026-04-21 23:56 34.83462 -116.76076 10984 ft 554 kts 47°
2026-04-21 23:56 34.86061 -116.72613 10984 ft 554 kts 47°
2026-04-21 23:56 34.88183 -116.69793 10985 ft 553 kts 47°
2026-04-21 23:56 34.89579 -116.67942 10984 ft 553 kts 47°
2026-04-21 23:57 34.92193 -116.64486 10976 ft 552 kts 47°
2026-04-21 23:57 34.94793 -116.61052 10969 ft 553 kts 47°
2026-04-21 23:57 34.97404 -116.57604 10958 ft 553 kts 47°
2026-04-21 23:57 35.00012 -116.54154 10947 ft 553 kts 47°
2026-04-21 23:58 35.02645 -116.50657 10921 ft 552 kts 48°
2026-04-21 23:58 35.05201 -116.47254 10937 ft 552 kts 48°
2026-04-21 23:58 35.07826 -116.43751 10928 ft 552 kts 49°
2026-04-21 23:58 35.10297 -116.40421 10927 ft 547 kts 50°
2026-04-21 23:59 35.11013 -116.39484 10914 ft 547 kts 48°
2026-04-21 23:59 35.13677 -116.36164 10912 ft 548 kts 47°
2026-04-21 23:59 35.16339 -116.32814 10918 ft 551 kts 47°
2026-04-21 23:59 35.19015 -116.29450 10939 ft 551 kts 47°
2026-04-22 00:00 35.21677 -116.26087 10909 ft 549 kts 47°
2026-04-22 00:00 35.24334 -116.22722 10897 ft 548 kts 47°
2026-04-22 00:00 35.26986 -116.19369 10946 ft 549 kts 47°
2026-04-22 00:00 35.29644 -116.16016 10943 ft 550 kts 47°
2026-04-22 00:01 35.32312 -116.12668 10965 ft 548 kts 47°
2026-04-22 00:01 35.34972 -116.09327 10982 ft 547 kts 47°
2026-04-22 00:01 35.37633 -116.05983 11004 ft 548 kts 47°
2026-04-22 00:01 35.40293 -116.02631 11020 ft 549 kts 47°
2026-04-22 00:02 35.42952 -115.99272 11018 ft 548 kts 47°
2026-04-22 00:02 35.45608 -115.95906 11017 ft 549 kts 47°
2026-04-22 00:02 35.48258 -115.92540 11002 ft 548 kts 47°
2026-04-22 00:02 35.50912 -115.89172 10955 ft 544 kts 47°
2026-04-22 00:03 35.53538 -115.85947 11818 ft 529 kts 46°
2026-04-22 00:03 35.56174 -115.82828 12932 ft 517 kts 45°
2026-04-22 00:03 35.58774 -115.79641 13677 ft 541 kts 45°
2026-04-22 00:03 35.61441 -115.76297 14150 ft 556 kts 46°
2026-04-22 00:04 35.64164 -115.72857 14723 ft 563 kts 46°
2026-04-22 00:04 35.66969 -115.69555 15696 ft 557 kts 40°
2026-04-22 00:04 35.69897 -115.66409 16336 ft 563 kts 40°
2026-04-22 00:04 35.72622 -115.62790 15541 ft 584 kts 51°
2026-04-22 00:05 35.75157 -115.58869 14812 ft 584 kts 53°
2026-04-22 00:05 35.77863 -115.55149 14096 ft 581 kts 47°
2026-04-22 00:05 35.80595 -115.51492 13374 ft 581 kts 48°
2026-04-22 00:05 35.83331 -115.47882 12588 ft 572 kts 48°
2026-04-22 00:06 35.86033 -115.44346 11834 ft 563 kts 48°
2026-04-22 00:06 35.88725 -115.40896 11370 ft 552 kts 45°
2026-04-22 00:06 35.91076 -115.38346 11144 ft 339 kts 45°
2026-04-22 00:06 35.92706 -115.36495 11062 ft 307 kts 45°
2026-04-22 00:07 35.94328 -115.34686 11028 ft 336 kts 44°
2026-04-22 00:07 35.96157 -115.32685 11011 ft 362 kts 43°
2026-04-22 00:07 35.98046 -115.30646 11001 ft 355 kts 42°
2026-04-22 00:07 35.99879 -115.28676 10979 ft 346 kts 43°
2026-04-22 00:08 36.01697 -115.26736 10960 ft 346 kts 43°
2026-04-22 00:08 36.03551 -115.24777 10954 ft 368 kts 42°
2026-04-22 00:08 36.05721 -115.22497 10962 ft 450 kts 41°
2026-04-22 00:08 36.08264 -115.19843 10960 ft 502 kts 41°
2026-04-22 00:09 36.11009 -115.16964 10955 ft 530 kts 41°
2026-04-22 00:09 36.13856 -115.13961 10953 ft 544 kts 42°
2026-04-22 00:09 36.16736 -115.10898 10932 ft 550 kts 42°
2026-04-22 00:09 36.19641 -115.07796 10898 ft 551 kts 42°
2026-04-22 00:10 36.22539 -115.04697 10899 ft 551 kts 42°
2026-04-22 00:10 36.25440 -115.01602 10899 ft 551 kts 42°
2026-04-22 00:10 36.28349 -114.98499 10910 ft 551 kts 42°
2026-04-22 00:10 36.31255 -114.95402 10903 ft 535 kts 42°
2026-04-22 00:11 36.33539 -114.92998 10834 ft 325 kts 41°
2026-04-22 00:11 36.35039 -114.91518 10060 ft 248 kts 38°
2026-04-22 00:11 36.36622 -114.90979 9299 ft 244 kts 351°
2026-04-22 00:11 36.37949 -114.91957 8666 ft 208 kts 282°
2026-04-22 00:12 36.37480 -114.93313 7921 ft 175 kts 214°
2026-04-22 00:12 36.36357 -114.94000 7067 ft 185 kts 201°
2026-04-22 00:12 36.35103 -114.94499 6215 ft 194 kts 199°
2026-04-22 00:12 36.33815 -114.94947 5354 ft 184 kts 199°
2026-04-22 00:13 36.32705 -114.95372 4945 ft 154 kts 201°
2026-04-22 00:13 36.31706 -114.95774 4492 ft 142 kts 207°
2026-04-22 00:13 36.30921 -114.96299 4245 ft 120 kts 213°
2026-04-22 00:13 36.30180 -114.96907 3630 ft 126 kts 216°
2026-04-22 00:14 36.29477 -114.97504 3319 ft 120 kts 216°
2026-04-22 00:14 36.28795 -114.98189 3057 ft 135 kts 219°
2026-04-22 00:14 36.28079 -114.98905 2833 ft 129 kts 217°
2026-04-22 00:14 36.27370 -114.99607 2616 ft 141 kts 217°
2026-04-22 00:15 36.26584 -115.00436 2460 ft 148 kts 219°
2026-04-22 00:15 36.25854 -115.01231 2155 ft 126 kts 218°
2026-04-22 00:15 36.25244 -115.01888 1975 ft 114 kts 220°
2026-04-22 00:15 36.24574 -115.02615 1892 ft 140 kts 221°
2026-04-22 00:16 36.23924 -115.03321 1874 ft 110 kts 220°
2026-04-22 00:16 36.23524 -115.03753 1873 ft 45 kts 221°
2026-04-22 00:16 36.23389 -115.03903 1874 ft 16 kts 220°
2026-04-22 00:16 36.23228 -115.04075 1872 ft 38 kts 221°
2026-04-22 00:17 36.23030 -115.04288 1872 ft 38 kts 221°